Location: Newark
(9.4667°S, 159.8167°E)
Time: 20:23:37
(UTC+00:00)

Courier 1B Rocket - Pass Details

Date: 24 November 2019
Orbit: 920 x 1202 km, 28.2° (Epoch: 05 December)

Event Time Altitude Azimuth Distance (km) Brightness Sun altitude
Rises 08:15:31 0° 337° (NNW) 4,010 8.2 -12.3°
Reaches altitude 10° 08:20:08 10° 2° (N) 3,091 7.4 -13.4°
Maximum altitude 08:23:41 14° 29° (NNE) 2,840 7.0 -14.2°
Enters shadow 08:24:29 13° 36° (NE) 2,858 6.9 -14.3°
Drops below altitude 10° 08:27:16 10° 57° (ENE) 3,125 - -15.0°
Sets 08:31:57 0° 81° (E) 4,089 - -16.0°
